User: anonymous   Login
Location: Montreal
(45.5087°N, 73.5540°W)
Time: 10:18:41
(UTC-04:00)
Language:

Gurwin Techsat 1B - Orbit

View from above orbital plane
View from above orbital plane
View from above satellite
View from above satellite

Ground track
Ground track

The orbit data is extracted from the following two-line orbital elements,

1 25397U 98043D   19111.91881088 -.00000013  00000-0  13317-4 0  9990
2 25397  98.6846  52.7773 0001258 151.4482 208.6766 14.23663753 79653
Epoch (UTC): 21 April 2019 22:03:05
Eccentricity: 0.0001258
inclination: 98.6846°
perigee height: 812 km
apogee height: 814 km
right ascension of ascending node: 52.7773°
argument of perigee: 151.4482°
revolutions per day: 14.23663753
mean anomaly at epoch: 208.6766°
orbit number at epoch: 7965

The dashed part of the orbit path shows where the satellite is in the earth's shadow,  

DLR